#timestamp,LO_Frequency,Hit,StdDev 
1604602815.5,286047002.1,N
1604602835.3,286047002.6,N
1604602855.2,286047000.1,N
1604602875.9,286047000.8,N
1604602895.7,286047001.2,N
1604602915.6,286047001.0,N
1604602935.4,286047000.4,N
1604602955.3,286047000.1,N
1604602975.1,286047000.2,N
1604602976.0,286047000.2,N
1604602995.8,286047000.4,N
1604603015.7,286047000.0,N
1604603035.5,286046999.8,N
1604603055.3,286046999.8,N
1604603075.2,286047000.1,N
1604603095.0,286047003.7,Y
1604603095.9,286047003.7,P
1604603115.8,286047003.2,N
1604603135.6,286047006.0,P
1604603155.4,286047003.0,N
1604603175.3,286047005.9,Y
1604603195.1,286047001.3,P
1604603215.9,286047006.0,P
1604603235.7,286047003.0,N
1604603255.5,286047003.6,N
1604603275.4,286047002.9,N
1604603295.2,286047004.5,Y
1604603315.1,286047004.4,P
1604603316.0,286047004.4,P
1604603335.8,286047002.2,P
1604603355.6,286047001.5,N
1604603375.5,286046999.8,N
1604603395.3,286047000.4,N
1604603415.1,286047002.7,N
1604603435.9,286047002.8,N
1604603455.7,286047002.8,N
1604603475.6,286047000.4,N
1604603495.4,286047001.0,N
1604603515.2,286047002.8,N
1604603535.1,286046999.7,N
1604603536.0,286046999.7,N
1604603555.8,286047002.8,N
1604603575.7,286047000.2,N
1604603595.5,286047002.6,N
1604603615.3,286047001.7,N
1604603635.2,286047003.1,N
1604603655.9,286047001.8,N
1604603675.7,286047004.0,N
1604603695.6,286047003.7,N
1604603715.4,286047002.4,N
1604603735.3,286047002.7,N
1604603755.1,286047000.1,N
1604603756.0,286047000.1,N
1604603775.8,286047001.9,N
1604603795.7,286047000.2,N
1604603815.5,286047002.2,N
1604603835.3,286046999.9,N
1604603855.2,286047000.4,N
1604603875.0,286047000.8,N
1604603875.9,286047000.8,N
1604603895.8,286047000.6,N
1604603915.6,286046998.6,N
1604603935.4,286047000.9,N
1604603955.3,286047001.0,N
1604603975.1,286046999.3,N
1604603995.9,286047001.2,N
1604604015.7,286047001.0,N
1604604035.5,286047000.4,N
1604604055.4,286047000.0,N
1604604075.2,286047001.0,N
1604604095.0,286046999.8,N
1604604095.9,286046999.8,N
1604604115.8,286047000.2,N
1604604135.6,286047003.9,Y
1604604155.5,286047001.6,P
1604604175.3,286047002.8,P
1604604195.1,286047000.9,N
1604604215.9,286047000.4,N
1604604235.7,286047000.5,N
1604604255.6,286046998.1,N
1604604275.4,286046998.2,N
1604604295.2,286046998.7,N
1604604315.1,286046998.9,N
1604604316.0,286046998.9,N
1604604335.8,286046998.7,N
1604604355.6,286046998.3,N
1604604375.5,286047000.5,N
1604604395.3,286047001.2,N
1604604415.2,286046999.0,N
1604604435.9,286047001.1,N
1604604455.7,286047001.2,N
1604604475.6,286047001.2,N
1604604495.4,286047000.5,N
1604604515.3,286046996.5,N
1604604535.1,286046999.2,N
1604604536.0,286046999.2,N
1604604555.8,286046997.1,N
1604604575.7,286046997.6,N
1604604595.5,286046995.6,N
1604604615.3,286046995.8,N
1604604635.2,286046994.6,N
1604604655.0,286046992.1,Y
1604604655.9,286046992.1,P
1604604675.8,286046992.0,N
1604604695.6,286046992.3,N
1604604715.4,286046993.0,N
1604604735.3,286046992.8,N
1604604755.1,286046992.4,Y
1604604775.9,286046998.6,P
1604604795.7,286046998.7,N
1604604815.5,286046998.5,N
1604604835.4,286047000.8,N
1604604855.2,286047001.2,N
1604604875.0,286046998.2,N
1604604875.9,286046998.2,N
1604604895.8,286047000.4,N
1604604915.6,286047000.6,N
1604604935.5,286046998.1,N
1604604955.3,286047000.6,N
1604604975.1,286046998.6,N
1604604995.9,286047001.1,N
1604605015.7,286046998.3,N
1604605035.6,286047001.6,N
1604605055.4,286047002.3,N
1604605075.2,286047000.1,N
1604605095.1,286047002.7,N
1604605096.0,286047002.7,N
1604605115.8,286047000.3,N
1604605135.6,286047002.7,N
1604605155.5,286046999.7,N
1604605175.3,286047000.9,N
1604605195.2,286047001.6,N
1604605215.9,286047002.2,N
1604605235.7,286047001.5,N
1604605255.6,286047002.3,N
1604605275.4,286047004.2,N
1604605295.2,286047004.2,N
1604605315.1,286047004.0,N
1604605316.0,286047004.0,N
1604605335.8,286047001.4,N
1604605355.7,286047003.6,N
1604605375.5,286047011.9,Y
1604605395.3,286047002.1,P
1604605415.2,286047000.2,N
1604605435.0,286047000.5,N
1604605435.9,286047000.5,N
1604605455.8,286047001.5,N
1604605475.6,286047003.8,Y
1604605495.4,286047002.6,P
1604605515.3,286047002.8,P
1604605535.1,286046998.2,N
1604605555.8,286047000.3,N
1604605575.7,286047001.9,N
1604605595.5,286047001.3,N
1604605615.4,286047002.8,N
1604605635.2,286047000.1,N
1604605655.0,286047001.8,N
1604605655.9,286047001.8,N
1604605675.8,286047001.6,N
1604605695.6,286047002.1,N
1604605715.5,286047003.7,N
1604605735.3,286047004.3,Y
1604605755.1,286047000.7,P
1604605775.9,286047002.6,P
1604605795.7,286047002.5,P
1604605815.5,286047000.3,N
1604605835.4,286046998.2,N
1604605855.2,286047000.8,N
1604605875.1,286047000.3,N
1604605876.0,286047000.3,N
1604605895.8,286046998.5,N
1604605915.6,286047002.7,N
1604605935.5,286047002.4,N
1604605955.3,286047002.0,N
1604605975.2,286047000.1,N
1604605995.9,286047000.0,N
1604606015.7,286046999.7,N
1604606035.6,286047002.1,N
1604606055.4,286047002.5,N
1604606075.2,286047002.0,N
1604606095.1,286047002.6,N
1604606096.0,286047002.6,N
1604606115.8,286046999.9,N
1604606135.7,286047002.5,N
1604606155.5,286047002.0,N
1604606175.3,286047002.5,N
1604606195.2,286047003.7,N
1604606215.0,286047003.5,N
1604606215.9,286047003.5,N
1604606235.8,286047003.6,N
1604606255.6,286047004.0,N
1604606275.4,286047003.9,N
1604606295.3,286047004.4,N
1604606315.1,286047003.0,N
1604606335.8,286047003.4,N
1604606355.7,286047006.0,Y
1604606375.5,286047000.2,P
1604606395.4,286047002.7,P
